GW3217 Weather Reports


Display with metric or nautical units.
time (UTC)temp
F
wind
direction
speed
MPH
gust
MPH
rain 1hr
in
rain 24hr
in
rain mn
in
humidity
%
barometer
mb
20260505073747 53 209 0.0 0.0 0.00 0.00 0.00 77 1012.0
20260505073245 53 208 0.0 0.0 0.00 0.00 0.00 76 1012.0
20260505072741 53 255 0.0 0.0 0.00 0.00 0.00 77 1012.1
20260505072238 53 179 0.0 0.0 0.00 0.00 0.00 77 1012.1
20260505071733 54 241 0.0 0.0 0.00 0.00 0.00 76 1012.3
20260505071230 54 306 0.0 0.0 0.00 0.00 0.00 76 1012.4
20260505070728 53 277 1.0 3.0 0.00 0.00 0.00 76 1012.1
20260505070223 53 246 0.0 0.0 0.00 0.00 0.00 76 1012.2
20260505065719 53 244 0.0 0.0 0.00 0.00 0.00 75 1012.5
20260505065211 53 240 0.0 0.0 0.00 0.00 0.00 75 1012.0
20260505064708 53 201 0.0 0.0 0.00 0.00 0.00 75 1012.2
20260505064206 53 295 0.0 0.0 0.00 0.00 0.00 76 1012.1
20260505063704 53 233 0.0 0.0 0.00 0.00 0.00 75 1012.3
20260505063159 53 244 0.0 0.0 0.00 0.00 0.00 75 1012.4
20260505062655 52 209 0.0 0.0 0.00 0.00 0.00 77 1012.4
20260505062154 52 242 0.0 0.0 0.00 0.00 0.00 77 1012.4
20260505061650 52 245 0.0 0.0 0.00 0.00 0.00 77 1012.4
20260505061149 53 242 0.0 0.0 0.00 0.00 0.00 76 1012.3
20260505060645 53 329 0.0 0.0 0.00 0.00 0.00 75 1012.5
20260505060142 53 8 0.0 1.0 0.00 0.00 0.00 75 1012.2
20260505055637 53 202 0.0 0.0 0.00 0.00 0.00 74 1012.5
20260505055134 54 252 0.0 0.0 0.00 0.00 0.00 73 1012.4
20260505054632 54 248 0.0 0.0 0.00 0.00 0.00 73 1012.4
20260505054130 54 246 0.0 0.0 0.00 0.00 0.00 73 1012.5
20260505053627 54 249 0.0 0.0 0.00 0.00 0.00 73 1012.5
20260505053123 54 248 0.0 0.0 0.00 0.00 0.00 72 1012.5
20260505052620 54 154 0.0 0.0 0.00 0.00 0.00 72 1012.6
20260505052118 54 23 2.0 3.0 0.00 0.00 0.00 72 1012.7
20260505051614 54 128 0.0 0.0 0.00 0.00 0.00 73 1012.6
20260505051113 54 316 2.0 3.0 0.00 0.00 0.00 73 1012.5
20260505050610 55 353 0.0 0.0 0.00 0.00 0.00 72 1012.8
20260505050108 54 94 0.0 0.0 0.00 0.00 0.00 73 1012.6
20260505041538 55 56 0.0 0.0 0.00 0.00 0.00 73 1013.0
20260505041036 55 124 1.0 1.0 0.00 0.00 0.00 70 1012.8
20260505040533 55 125 2.0 3.0 0.00 0.00 0.00 70 1013.2
20260505040030 55 120 1.0 1.0 0.00 0.00 0.00 69 1013.0
20260505035525 55 133 1.0 2.0 0.00 0.00 0.00 70 1013.0
20260505035023 54 73 1.0 1.0 0.00 0.00 0.00 71 1013.0
20260505034519 54 127 1.0 1.0 0.00 0.00 0.00 72 1013.0
20260505034016 55 117 1.0 1.0 0.00 0.00 0.00 71 1013.1
20260505033513 55 135 0.0 1.0 0.00 0.00 0.00 71 1012.9
20260505033011 54 103 1.0 2.0 0.00 0.00 0.00 72 1013.0
20260505032508 54 124 2.0 3.0 0.00 0.00 0.00 73 1012.8
20260505032005 54 107 1.0 1.0 0.00 0.00 0.00 73 1013.0
20260505031502 54 91 1.0 2.0 0.00 0.00 0.00 74 1012.9
20260505030958 53 112 0.0 1.0 0.00 0.00 0.00 74 1012.9
20260505030455 53 111 0.0 1.0 0.00 0.00 0.00 74 1013.0
20260505025950 53 114 0.0 0.0 0.00 0.00 0.00 74 1013.0
20260505025447 53 121 0.0 1.0 0.00 0.00 0.00 74 1013.1
20260505024946 54 115 1.0 1.0 0.00 0.00 0.00 74 1013.0
20260505024443 53 115 0.0 1.0 0.00 0.00 0.00 74 1012.8
20260505023940 53 127 0.0 1.0 0.00 0.00 0.00 75 1013.0
20260505023437 53 119 0.0 0.0 0.00 0.00 0.00 74 1013.1
20260505022934 53 120 2.0 2.0 0.00 0.00 0.00 75 1013.3
20260505022432 53 118 0.0 0.0 0.00 0.00 0.00 75 1013.1
20260505021929 54 114 1.0 1.0 0.00 0.00 0.00 74 1012.9
20260505021425 53 119 0.0 1.0 0.00 0.00 0.00 74 1013.1
20260505020921 53 112 1.0 1.0 0.00 0.00 0.00 74 1013.1
20260505020416 53 111 0.0 0.0 0.00 0.00 0.00 74 1013.0
20260505015914 54 112 0.0 0.0 0.00 0.00 0.00 73 1013.1
20260505015411 54 112 1.0 1.0 0.00 0.00 0.00 72 1013.2
20260505014908 54 117 0.0 1.0 0.00 0.00 0.00 72 1013.3
20260505014405 54 119 0.0 1.0 0.00 0.00 0.00 73 1013.1
20260505013902 54 115 0.0 0.0 0.00 0.00 0.00 71 1013.1
20260505013358 54 120 1.0 1.0 0.00 0.00 0.00 71 1013.1
20260505012857 54 116 0.0 0.0 0.00 0.00 0.00 71 1012.8
20260505012355 54 122 1.0 1.0 0.00 0.00 0.00 70 1012.8
20260505011850 55 119 0.0 0.0 0.00 0.00 0.00 70 1012.7
20260505011347 55 118 0.0 0.0 0.00 0.00 0.00 69 1012.7
20260505010844 55 121 0.0 1.0 0.00 0.00 0.00 68 1012.5
20260505010339 55 120 0.0 1.0 0.00 0.00 0.00 67 1012.5
20260505005836 56 138 1.0 1.0 0.00 0.00 0.00 66 1012.5
20260505005333 56 109 0.0 0.0 0.00 0.00 0.00 66 1012.4
20260505004830 56 130 1.0 1.0 0.00 0.00 0.00 65 1012.4
20260505004326 56 123 1.0 2.0 0.00 0.00 0.00 64 1012.4
20260505003824 57 139 1.0 1.0 0.00 0.00 0.00 63 1012.5
20260505003321 57 128 1.0 1.0 0.00 0.00 0.00 63 1012.2
20260505002817 57 138 0.0 1.0 0.00 0.00 0.00 62 1012.0
20260505002314 58 116 2.0 2.0 0.00 0.00 0.00 61 1011.9
20260505001812 58 116 1.0 1.0 0.00 0.00 0.00 60 1011.8
20260505001309 59 166 1.0 2.0 0.00 0.00 0.00 60 1011.8
20260505000806 59 125 2.0 2.0 0.00 0.00 0.00 59 1011.9
20260505000304 59 126 1.0 1.0 0.00 0.00 0.00 59 1011.6
20260504235800 59 135 1.0 1.0 0.00 0.00 0.00 58 1011.8
20260504235257 60 131 0.0 1.0 0.00 0.00 0.00 58 1011.5
20260504234754 60 129 1.0 1.0 0.00 0.00 0.00 56 1011.5
20260504234252 61 142 2.0 3.0 0.00 0.00 0.00 55 1011.4
20260504233748 62 114 0.0 0.0 0.00 0.00 0.00 55 1011.2
20260504233243 62 142 1.0 1.0 0.00 0.00 0.00 54 1011.2
20260504232740 63 105 1.0 1.0 0.00 0.00 0.00 52 1011.0
20260504232238 63 165 1.0 1.0 0.00 0.00 0.00 51 1011.1
20260504231735 65 356 1.0 2.0 0.00 0.00 0.00 49 1010.9
20260504231231 65 72 1.0 1.0 0.00 0.00 0.00 49 1010.7
20260504230727 66 112 0.0 1.0 0.00 0.00 0.00 49 1010.5
20260504230226 66 130 1.0 1.0 0.00 0.00 0.00 47 1010.5
20260504225724 67 96 2.0 2.0 0.00 0.00 0.00 43 1010.9
20260504225220 68 116 1.0 1.0 0.00 0.00 0.00 38 1010.4
20260504224717 68 101 1.0 2.0 0.00 0.00 0.00 38 1010.3
20260504224214 69 205 4.0 7.0 0.00 0.00 0.00 37 1010.6
20260504223711 69 95 1.0 1.0 0.00 0.00 0.00 36 1010.5
20260504223206 70 95 2.0 3.0 0.00 0.00 0.00 36 1010.5
20260504222703 70 40 2.0 2.0 0.00 0.00 0.00 36 1010.6
20260504222200 70 175 3.0 3.0 0.00 0.00 0.00 36 1010.4
20260504221657 70 344 4.0 7.0 0.00 0.00 0.00 35 1010.5
20260504221155 70 98 1.0 2.0 0.00 0.00 0.00 37 1010.5
20260504220651 70 136 5.0 7.0 0.00 0.00 0.00 35 1010.5
20260504220149 71 198 1.0 2.0 0.00 0.00 0.00 37 1010.6
20260504215645 71 102 1.0 1.0 0.00 0.00 0.00 35 1010.7
20260504215142 71 49 1.0 2.0 0.00 0.00 0.00 37 1010.9
20260504214638 69 191 2.0 3.0 0.00 0.00 0.00 36 1011.0
20260504214134 70 123 3.0 4.0 0.00 0.00 0.00 35 1010.9
20260504213631 70 316 3.0 3.0 0.00 0.00 0.00 37 1010.7
20260504213128 71 303 4.0 4.0 0.00 0.00 0.00 34 1011.0
20260504212624 70 108 2.0 3.0 0.00 0.00 0.00 36 1011.2
20260504212121 71 85 1.0 2.0 0.00 0.00 0.00 37 1011.0
20260504211619 71 177 2.0 2.0 0.00 0.00 0.00 37 1010.9
20260504211115 71 257 3.0 3.0 0.00 0.00 0.00 33 1011.1
20260504210613 71 110 3.0 8.0 0.00 0.00 0.00 34 1011.0
20260504210109 70 300 4.0 6.0 0.00 0.00 0.00 35 1011.0
20260504205607 70 157 4.0 6.0 0.00 0.00 0.00 32 1010.9
20260504205104 72 84 1.0 2.0 0.00 0.00 0.00 32 1010.6
20260504204602 73 133 1.0 1.0 0.00 0.00 0.00 33 1010.9
20260504204101 73 258 0.0 1.0 0.00 0.00 0.00 33 1011.1
20260504203559 73 159 2.0 3.0 0.00 0.00 0.00 34 1010.9
20260504203056 73 72 4.0 7.0 0.00 0.00 0.00 33 1010.9
20260504202551 72 288 5.0 8.0 0.00 0.00 0.00 32 1011.0
20260504202048 72 89 1.0 2.0 0.00 0.00 0.00 32 1011.0
20260504201545 73 41 2.0 3.0 0.00 0.00 0.00 34 1011.0
20260504201043 72 290 5.0 7.0 0.00 0.00 0.00 30 1011.0
20260504200539 71 142 1.0 1.0 0.00 0.00 0.00 36 1011.1
20260504200036 71 169 2.0 3.0 0.00 0.00 0.00 34 1011.3
20260504195532 71 167 2.0 2.0 0.00 0.00 0.00 35 1011.4
20260504195029 71 196 3.0 3.0 0.00 0.00 0.00 34 1011.1
20260504194526 71 126 2.0 2.0 0.00 0.00 0.00 35 1011.5
20260504194021 71 280 4.0 4.0 0.00 0.00 0.00 32 1011.4
20260504193518 72 91 3.0 3.0 0.00 0.00 0.00 31 1011.2
20260504193017 73 28 4.0 6.0 0.00 0.00 0.00 33 1011.4
20260504192515 71 109 2.0 3.0 0.00 0.00 0.00 33 1011.3
20260504192013 72 333 6.0 9.0 0.00 0.00 0.00 32 1011.6
20260504191510 71 289 3.0 7.0 0.00 0.00 0.00 35 1011.6
20260504191006 69 126 1.0 2.0 0.00 0.00 0.00 36 1011.6
20260504190502 70 54 3.0 6.0 0.00 0.00 0.00 32 1011.6
20260504185958 72 107 4.0 7.0 0.00 0.00 0.00 31 1011.7
20260504185455 69 196 2.0 2.0 0.00 0.00 0.00 34 1011.9
20260504184952 69 244 2.0 2.0 0.00 0.00 0.00 36 1011.7
20260504184447 70 176 2.0 3.0 0.00 0.00 0.00 34 1011.7
20260504183943 70 195 2.0 3.0 0.00 0.00 0.00 34 1012.0
20260504183441 70 22 3.0 6.0 0.00 0.00 0.00 36 1012.2
20260504182938 68 190 3.0 4.0 0.00 0.00 0.00 34 1012.0
20260504182435 68 223 5.0 6.0 0.00 0.00 0.00 35 1012.0
20260504181933 67 147 3.0 4.0 0.00 0.00 0.00 37 1012.1
20260504181429 70 52 3.0 4.0 0.00 0.00 0.00 33 1012.2
20260504180928 70 321 3.0 3.0 0.00 0.00 0.00 34 1012.1
20260504180427 67 340 3.0 4.0 0.00 0.00 0.00 36 1012.0
20260504175924 68 309 4.0 6.0 0.00 0.00 0.00 34 1012.0
20260504175421 69 333 5.0 7.0 0.00 0.00 0.00 34 1012.5
20260504174919 70 139 1.0 2.0 0.00 0.00 0.00 36 1012.4
20260504174416 68 105 2.0 3.0 0.00 0.00 0.00 38 1012.5
20260504173913 68 272 2.0 4.0 0.00 0.00 0.00 35 1012.3
20260504173409 67 337 3.0 3.0 0.00 0.00 0.00 35 1012.5
20260504172907 67 113 2.0 3.0 0.00 0.00 0.00 35 1012.8
20260504172403 67 322 6.0 11.0 0.00 0.00 0.00 35 1012.6
20260504171859 67 298 5.0 11.0 0.00 0.00 0.00 35 1012.8
20260504171357 69 115 3.0 4.0 0.00 0.00 0.00 34 1012.9
20260504170854 67 63 2.0 3.0 0.00 0.00 0.00 39 1012.6
20260504170350 65 185 3.0 3.0 0.00 0.00 0.00 36 1012.8
20260504160309 65 58 4.0 6.0 0.00 0.00 0.00 36 1013.4
20260504150734 62 271 6.0 10.0 0.00 0.00 0.00 39 1013.6
20260504150231 61 124 2.0 4.0 0.00 0.00 0.00 39 1013.9
20260504141200 57 283 2.0 3.0 0.00 0.00 0.00 44 1014.2
20260504140657 57 193 2.0 3.0 0.00 0.00 0.00 43 1014.5
20260504140152 57 282 3.0 3.0 0.00 0.00 0.00 43 1014.4
20260504130621 54 99 3.0 4.0 0.00 0.00 0.00 50 1014.8
20260504130118 53 315 2.0 2.0 0.00 0.00 0.00 49 1014.9
20260504110509 47 114 0.0 1.0 0.00 0.00 0.00 58 1014.9
20260504100431 45 98 1.0 1.0 0.00 0.00 0.00 60 1014.6
20260504081824 44 67 1.0 2.0 0.00 0.00 0.00 58 1014.3
20260504081320 45 110 0.0 0.0 0.00 0.00 0.00 59 1014.4
20260504080816 45 111 0.0 1.0 0.00 0.00 0.00 58 1014.3
20260504080314 45 109 1.0 1.0 0.00 0.00 0.00 57 1014.2